Regional Weather Roundup
Issued by NWS Green Bay, WI

Home | Current Version | Previous Version | Text Only | Print | Product List | Glossary On
Versions: 1 2 3 4 5 6 7 8 9 10 11 12 13 14 15 16 17 18 19 20 21 22 23 24 25 26 27 28 29 30 31 32 33 34 35 36 37 38 39 40 41 42 43 44 45 46 47 48 49 50
000
ASUS43 KGRB 300211
RWRGRB

NORTH-CENTRAL AND NORTHEAST WISCONSIN REGIONAL WEATHER ROUNDUP
NATIONAL WEATHER SERVICE GREEN BAY WI
900 PM CDT MON MAY 29 2017

WIZ005-009-010>012-018-019-300300-
NORTH CENTRAL WISCONSIN

CITY           SKY/WX    TMP DP  RH WIND       PRES   REMARKS
IRONWOOD       CLOUDY    53  48  83 W13       29.74S
MANITOWISH WTR CLOUDY    52  49  88 NW6       29.75R
ARBOR VITAE    CLOUDY    55  51  87 W6        29.75R
EAGLE RIVER    LGT RAIN  52  50  94 W8        29.74R
LAND O LAKES   LGT RAIN  51  49  91 W6        29.76R
RHINELANDER    CLOUDY    53  50  89 W10       29.77R
PHILLIPS       CLOUDY    52  51  98 W3        29.77R
ANTIGO         MOCLDY    50  48  93 W6        29.78S
TOMAHAWK       LGT RAIN  51  49  90 W6        29.78R
MERRILL        MOCLDY    53  51  94 W6        29.78S
$$

WIZ013-073-300300-
NORTHEAST WISCONSIN

CITY           SKY/WX    TMP DP  RH WIND       PRES   REMARKS
IRON MOUNTAIN  CLOUDY    54  49  83 W7        29.71R
MARINETTE      NOT AVBL
OCONTO         CLOUDY    54  49  83 CALM      29.76R
$$

WIZ017-030-035>037-045-300300-
CENTRAL WISCONSIN

CITY           SKY/WX    TMP DP  RH WIND       PRES   REMARKS
MEDFORD        MOCLDY    53  49  86 W9        29.79R
WAUSAU         MOCLDY    52  49  89 W7        29.77S
MOSINEE        NOT AVBL
MARSHFIELD     PTCLDY    52  48  86 W7        29.80R
WISC RAPIDS    MOCLDY    55  46  71 W5        29.83R
STEVENS POINT  CLOUDY    54  46  75 W6        29.81R
WAUPACA        MOCLDY    60  49  65 W5        29.81R
SHAWANO        CLOUDY    58  47  67 W10G22    29.78R
CLINTONVILLE   LGT RAIN  55  46  71 W8        29.78R
WAUTOMA        NOT AVBL
$$

WIZ038-039-048-051-300300-
FOX VALLEY

CITY           SKY/WX    TMP DP  RH WIND       PRES   REMARKS
NWS GREEN BAY  CLEAR     59  51  75 SW7       29.78R
APPLETON       MOCLDY    57  46  67 SW10      29.79R
OSHKOSH        PTCLDY    58  45  62 VRB5      29.81R
FOND DU LAC    PTCLDY    58  46  64 SW5       29.82R
$$

WIZ022-050-052-300300-
EAST CENTRAL WISCONSIN

CITY           SKY/WX    TMP DP  RH WIND       PRES   REMARKS
EPHRAIM        MOCLDY   N/A N/A N/A W9        29.73S
WASHINGTON ISL CLOUDY    56  48  74 SW9       29.72S
STURGEON BAY   CLOUDY    56  49  77 SW3       29.76F
MANITOWOC      PTCLDY    60  47  61 W7        29.80R
SHEBOYGAN      PTCLDY    58  49  72 SW8       29.81R
$$

LMZ563-521-522-541>543-300300-
LAKESHORE

STATION/POSITION TIME  TEMP    WIND        PRES    VSBY  WAVE
                       AIR SEA DIR/SP/G                  HT/PER
                 (UTC) (F)     (DEG/KT/KT) (MB)    (MI)  (FT/S)
SHEBOYGAN LKSHOR 0200   61     240/ 10/ 12 1009.2R
KEWAUNEE LKSHORE 0148   61     250/  5/  9 1008.0R
NORTHPORT PIER   0140   60     210/  6/  9 1006.4S
N MID LAKE BUOY  0150   47 41  230/ 12/ 14 1007.6R         2/ 4
CHAMBERS ISLAND  0140   56     200/  8/ 12 1006.8R
MENOMINEE LKSHOR 0148          220/  8/ 10 1006.5R
$$




USA.gov is the U.S. government's official web portal to all federal, state and local government web resources and services.